EW6866 Weather Reports


time (UTC)temp
C
wind
direction
speed
KPH
gust
KPH
rain 1hr
cm
rain 24hr
cm
rain mn
cm
humidity
%
barometer
mb
20260831203005 33 251 0.0 1.6 0.00 0.00 0.00 53 1017.0
20260831201505 33 285 0.0 1.6 0.00 0.00 0.00 55 1016.9
20260831200025 33 277 0.0 3.2 0.00 0.00 0.00 50 1016.9
20260831194505 33 239 0.0 3.2 0.00 0.00 0.00 50 1017.1
20260831193025 33 177 0.0 1.6 0.00 0.00 0.00 50 1017.2
20260831191504 32 269 0.0 4.8 0.00 0.00 0.00 52 1017.4
20260831190005 32 259 1.6 6.4 0.00 0.00 0.00 62 1017.5
20260831184504 32 251 1.6 6.4 0.00 0.00 0.00 65 1017.6
20260831183004 31 250 1.6 6.4 0.00 0.00 0.00 68 1017.7
20260831181504 31 267 1.6 8.0 0.00 0.00 0.00 71 1017.9
20260831180004 31 250 1.6 8.0 0.00 0.00 0.00 72 1017.9
20260831174526 31 267 1.6 4.8 0.00 0.00 0.00 73 1018.0
20260831173004 31 233 1.6 6.4 0.00 0.00 0.00 74 1018.1
20260831171504 31 268 1.6 6.4 0.00 0.00 0.00 74 1018.3
20260831170004 31 264 1.6 8.0 0.00 0.00 0.00 74 1018.3
20260831164504 32 131 0.0 3.2 0.00 0.00 0.00 73 1018.5
20260831163004 31 272 0.0 3.2 0.00 0.00 0.00 72 1018.5
20260831161504 31 228 0.0 4.8 0.00 0.00 0.00 72 1018.6
20260831160004 31 271 0.0 4.8 0.00 0.00 0.00 73 1018.6
20260831154504 31 171 0.0 1.6 0.00 0.00 0.00 71 1018.6
20260831153003 31 74 0.0 1.6 0.00 0.00 0.00 73 1018.5
20260831151504 30 86 0.0 1.6 0.00 0.00 0.00 74 1018.7
20260831150004 30 194 0.0 1.6 0.00 0.00 0.00 76 1018.7
20260831144504 29 0 0.0 0.0 0.00 0.00 0.00 81 1018.8
20260831143004 28 91 0.0 3.2 0.00 0.00 0.00 82 1018.8
20260831141504 27 100 0.0 3.2 0.00 0.00 0.00 84 1018.7
20260831140004 27 110 0.0 1.6 0.00 0.00 0.00 87 1018.4
20260831134504 26 125 0.0 1.6 0.00 0.00 0.00 90 1018.3
20260831133025 25 105 0.0 1.6 0.00 0.00 0.00 92 1018.3
20260831131503 25 0 0.0 0.0 0.00 0.00 0.00 96 1018.4
20260831130004 24 141 0.0 1.6 0.00 0.00 0.00 98 1018.1
20260831124504 23 0 0.0 0.0 0.00 0.00 0.00 99 1018.1
20260831123003 23 131 0.0 1.6 0.00 0.00 0.00 99 1018.2
20260831121504 22 115 0.0 1.6 0.00 0.00 0.00 99 1018.3
20260831120025 22 0 0.0 0.0 0.00 0.00 0.00 99 1018.4
20260831114503 21 0 0.0 0.0 0.00 0.00 0.00 99 1018.5
20260831113004 21 0 0.0 0.0 0.00 0.00 0.00 99 1018.4
20260831111504 21 0 0.0 0.0 0.00 0.00 0.00 99 1018.5
20260831110003 21 0 0.0 0.0 0.00 0.00 0.00 98 1018.3
20260831104504 21 0 0.0 0.0 0.00 0.00 0.00 98 1018.1
20260831103004 21 0 0.0 0.0 0.00 0.00 0.00 98 1018.0
20260831101505 21 246 0.0 1.6 0.00 0.00 0.00 98 1017.9
20260831100003 21 0 0.0 0.0 0.00 0.00 0.00 98 1017.9
20260831094504 21 0 0.0 0.0 0.00 0.00 0.00 98 1017.8
20260831093003 21 0 0.0 0.0 0.00 0.00 0.00 98 1017.9
20260831091503 21 0 0.0 0.0 0.00 0.00 0.00 98 1018.1
20260831090004 22 0 0.0 0.0 0.00 0.00 0.00 98 1018.0
20260831084503 22 0 0.0 0.0 0.00 0.00 0.00 98 1018.0
20260831083004 22 0 0.0 0.0 0.00 0.00 0.00 98 1017.8
20260831081504 22 0 0.0 0.0 0.00 0.00 0.00 98 1017.8
20260831080003 22 0 0.0 0.0 0.00 0.00 0.00 98 1017.9
20260831074505 22 0 0.0 0.0 0.00 0.00 0.00 98 1017.9
20260831073026 22 0 0.0 0.0 0.00 0.00 0.00 98 1018.1
20260831071526 22 0 0.0 0.0 0.00 0.00 0.00 98 1018.0
20260831070005 22 0 0.0 0.0 0.00 0.00 0.00 98 1018.1
20260831064505 22 0 0.0 0.0 0.00 0.00 0.00 98 1018.1
20260831063005 22 0 0.0 0.0 0.00 0.00 0.00 97 1018.2
20260831061505 23 0 0.0 0.0 0.00 0.00 0.00 98 1018.2
20260831060005 23 0 0.0 0.0 0.00 0.00 0.00 97 1018.4
20260831054505 23 230 0.0 1.6 0.00 0.00 0.00 98 1018.6
20260831053005 23 0 0.0 0.0 0.00 0.00 0.00 97 1018.7
20260831051505 23 0 0.0 0.0 0.00 0.00 0.00 97 1018.7
20260831050005 23 0 0.0 0.0 0.00 0.00 0.00 97 1018.8
20260831044505 23 0 0.0 0.0 0.00 0.00 0.00 97 1018.9
20260831043025 23 0 0.0 0.0 0.00 0.00 0.00 97 1018.8
20260831041505 23 0 0.0 0.0 0.00 0.00 0.00 97 1018.9
20260831040027 23 0 0.0 0.0 0.00 0.00 0.00 96 1018.8
20260831034526 23 0 0.0 0.0 0.00 0.00 0.00 96 1018.7
20260831033025 23 0 0.0 0.0 0.00 0.00 0.00 96 1018.9
20260831031505 23 0 0.0 0.0 0.00 0.00 0.00 96 1018.8
20260831030026 23 0 0.0 0.0 0.00 0.00 0.00 96 1018.8
20260831024504 23 0 0.0 0.0 0.00 0.00 0.00 95 1019.0
20260831023026 23 0 0.0 0.0 0.00 0.00 0.00 95 1019.0
20260831021505 23 0 0.0 0.0 0.00 0.00 0.00 95 1019.0
20260831020026 24 0 0.0 0.0 0.00 0.00 0.00 94 1019.1
20260831014526 24 0 0.0 0.0 0.00 0.00 0.00 94 1019.0
20260831013004 24 0 0.0 0.0 0.00 0.00 0.00 93 1019.0
20260831011505 24 0 0.0 0.0 0.00 0.00 0.00 92 1018.9
20260831010005 25 0 0.0 0.0 0.00 0.00 0.00 91 1018.9
20260831004526 25 268 0.0 1.6 0.00 0.00 0.00 91 1018.7
20260831003004 25 279 0.0 1.6 0.00 0.00 0.00 89 1018.5
20260831001505 25 253 0.0 1.6 0.00 0.00 0.00 89 1018.7
20260831000005 26 245 0.0 3.2 0.00 0.00 0.00 88 1018.7
20260830234526 26 285 0.0 4.8 0.00 0.00 0.00 87 1018.7
20260830233025 26 267 0.0 8.0 0.00 0.00 0.00 86 1018.9
20260830231525 27 276 0.0 6.4 0.00 0.00 0.00 86 1019.0
20260830230005 27 262 0.0 8.0 0.00 0.00 0.00 85 1018.9
20260830224505 27 252 0.0 6.4 0.00 0.00 0.00 82 1019.0
20260830223004 27 0 0.0 0.0 0.00 0.00 0.00 84 1019.0
20260830221505 28 0 0.0 0.0 0.00 0.00 0.00 82 1018.8
20260830220005 28 325 0.0 1.6 0.00 0.00 0.00 82 1018.9
20260830214504 28 0 0.0 0.0 0.00 0.00 0.00 81 1018.9
20260830213004 28 290 1.6 4.8 0.00 0.00 0.00 78 1018.9
20260830211504 29 269 1.6 4.8 0.00 0.00 0.00 78 1018.7
20260830210004 29 276 0.0 4.8 0.00 0.00 0.00 79 1018.6
20260830204504 28 292 1.6 8.0 0.00 0.00 0.00 80 1018.6